DELTA 1 DEB, 10653

Orbit data source: Space-Track

DELTA 1 DEB, 10653 is space debris in SSO originally from a launch on Thu, 29 Jul 1976 UTC launched from the Air Force Western Test Range (AFWTR). Debris objects in space refer to the collection of defunct objects orbiting the Earth. Examples of debris include non-operational satellites, rocket bodies, and fragments generated from explosions, collisions, or faulty payload assembly.

Loading next visibility...
Identifier
10653, 1976-077P
Orbit
SSO
Country
Flag of USUS
Related business
Manufacturer
Unknown
Mission
Spacecraft
Bus & Motor
Unknown
Mass
Unknown
Launch date (UTC)
1976-07-29 (50 years ago)
Launch vehicle
Unknown
Launch site
Air Force Western Test Range (AFWTR)
Object type
Payload
Rocket body
Debris
Shape & HBR
Unknown shape, 0.3 m
Radar Cross Section
Medium (>0.1 m² and <1 m²)

Expand to show TLE details & history
Last TLE update: 14 hours ago

TLE from 14 hours ago
0 DELTA 1 DEB
1 10653U 76077P   26126.27768669  .00000035  00000-0  72099-3 0  9998
2 10653 102.6426 245.6540 0129159 136.2617 253.7587 12.24276397224005
Epoch: 2026-05-06T06:39Z
TLE epoch observation values (Epoch: 2026-05-06T06:39:52.130Z)
Latitude
27.89175°
Longitude
-85.23904°
Altitude
1,606.988 km
Speed
7.056 km/s
True Right ascension
15h 55m 28s
True Declination
27° 45' 54"
Sunlit
Object was in full shadow at epoch
Visualization orbit readout
Latitude
Unknown
Longitude
Unknown
Altitude
Unknown
Speed
Unknown
Apparent Right ascension
Unknown
Apparent Declination
Unknown
Sunlit
N/A
Visualization observer readout
Local Sidereal Time
04:51:02
Azimuth
Unknown
Elevation
Unknown
Doppler factor
Unknown
Orbital elements
Apogee altitude
1,674.281 km
Perigee altitude
1,468.925 km
Semi-major axis
7,949.74 km
Eccentricity
0.01292
Inclination
102.6426°
RAAN
245.654°
Arg. of periapsis
136.2617°
True anomaly
252.34424°
Mean anomaly
253.7587°
Eccentric anomaly
253.05082°
Mean motion
3.06206 °/min
Orbital period
117.57 mins
BSTAR
0.00072099
Loading maneuver chart data...
Computing Atmospheric mass density...
Loading historical data...
Loading historical data...
Loading historical data...
Loading historical data...
Loading historical data...
Loading historical data...
Loading historical data...

Documentation

Showing up to 5 results
|